Temperature
25 25 25 26 27 27 27 28 28 28 29 29 28 27 27 27 26 25 23 21 19 18 17 16 16 16 16 16 16 16 16 16 16 16 16 16 16 16 16 16 16 16 16 16
25 25 27 28 28 28 28 28 28 28 29 29 28 27 27 27 26 25 23 21 19 18 16 16 15 15 15 15 15 15 16 16 16 16 16 16 16 16 15 15 16 16 16 16
25 26 28 28 27 27 27 27 27 27 27 28 27 26 25 25 25 24 22 21 19 18 16 15 14 14 14 14 14 14 15 15 15 15 15 15 15 15 15 15 15 15 15 15
26 27 27 27 27 27 26 27 28 28 27 26 26 25 24 24 24 23 22 20 18 17 16 15 14 13 13 13 13 14 14 14 15 15 15 14 14 14 14 14 14 14 14 14
26 27 27 26 27 27 27 28 27 27 26 25 25 24 23 22 22 22 22 20 18 16 15 14 13 13 13 13 13 13 13 13 14 14 14 14 13 14 14 14 14 14 14 14
27 28 28 27 28 28 28 27 27 27 26 24 24 24 22 22 21 21 21 19 17 16 15 14 13 12 12 12 12 12 12 13 13 13 13 13 13 13 13 13 13 13 13 13
26 27 28 28 27 27 27 26 24 23 22 23 24 24 22 22 22 21 20 18 17 15 14 14 13 12 12 11 11 11 12 12 12 12 12 12 12 12 12 12 12 12 12 12
24 24 26 27 27 26 26 25 22 21 21 21 22 22 21 22 22 21 19 18 16 15 14 13 12 12 11 11 11 11 11 11 11 11 11 11 11 11 11 11 11 11 11 12
23 24 26 27 27 26 25 25 25 23 22 21 21 21 20 21 21 20 18 17 16 15 14 13 12 11 10 10 10 10 10 10 10 10 10 11 11 11 11 11 11 11 11 11
24 23 25 26 27 27 27 26 25 23 21 20 20 19 19 20 20 20 18 17 15 14 13 12 11 10 10 10 10 10 10 10 10 10 10 10 10 10 10 10 10 10 10 10
24 23 24 25 25 25 25 25 25 24 23 21 19 19 20 19 20 20 18 17 15 14 12 11 11 10 10 10 9 9 9 9 9 9 9 9 9 9 9 9 9 9 9 9
23 23 22 24 25 26 25 25 25 23 22 22 21 19 20 19 20 20 18 16 14 13 12 11 11 10 10 9 9 9 9 8 8 8 8 8 8 8 9 9 9 9 9 9
22 21 21 21 22 23 24 24 25 24 23 22 21 19 20 19 19 18 17 15 13 12 11 11 10 9 9 9 8 8 8 8 8 8 8 8 8 8 8 8 8 8 8 8
21 21 20 19 20 20 21 23 24 23 22 22 21 20 19 18 18 17 15 14 12 11 11 10 10 9 9 8 8 8 8 8 8 8 8 8 8 8 8 8 8 8 8 8
22 20 20 21 21 21 22 23 24 23 23 22 22 21 19 18 18 16 14 13 12 11 10 10 9 8 8 8 8 8 7 7 7 7 7 7 7 7 7 7 7 7 7 7
21 20 20 21 22 23 23 23 23 23 23 23 22 20 19 18 17 15 13 12 11 10 10 9 9 8 8 8 8 7 7 7 7 7 7 7 7 7 7 7 7 7 7 7
21 20 20 20 22 23 21 22 23 23 23 22 21 19 18 17 16 15 13 12 11 10 10 9 9 8 8 8 7 7 7 7 7 7 7 7 7 7 7 6 6 6 6 7
20 19 19 20 21 19 21 23 23 22 22 21 20 19 18 16 15 14 13 12 11 10 9 9 8 8 8 8 7 7 7 7 7 7 7 7 7 6 6 6 6 6 6 6
21 20 19 19 19 19 20 22 23 22 20 20 19 18 17 15 14 13 12 12 11 10 9 9 8 8 8 7 7 7 7 7 7 7 7 7 6 6 6 6 6 6 6 6
22 21 19 19 19 18 19 21 22 22 18 19 18 17 16 16 15 13 11 11 10 9 9 8 8 8 7 7 7 7 7 7 7 7 7 6 6 6 6 6 6 6 6 6
20 20 19 19 19 18 19 21 22 19 17 18 17 17 16 16 14 12 11 10 9 9 8 8 8 8 7 7 7 7 7 7 7 6 6 6 6 6 6 6 6 6 6 6
19 19 19 18 18 17 19 19 18 17 17 17 17 16 15 13 12 10 10 9 9 8 8 8 8 7 7 7 7 7 7 6 6 6 6 6 6 6 6 6 6 6 6 6
19 18 18 17 17 17 17 17 17 17 17 16 16 15 13 12 11 10 9 9 8 8 8 8 8 7 7 7 7 7 6 6 6 6 6 6 6 6 6 6 6 7 7 7
20 20 18 17 17 17 18 17 17 17 16 16 15 14 13 12 11 10 9 9 8 8 8 8 7 7 7 7 7 7 7 6 6 6 6 6 6 6 6 6 7 7 7 7
19 19 18 18 18 18 17 17 16 16 16 15 14 14 13 11 11 10 9 9 8 8 8 7 7 7 7 7 7 7 6 6 6 6 6 6 6 6 6 6 7 7 7 7
19 19 18 17 17 17 16 16 16 15 15 14 14 13 12 11 10 10 9 9 8 8 8 7 7 7 7 7 7 7 6 6 6 7 7 7 7 7 7 7 7 7 7 7
Wind_Speed
11 12 13 14 16 15 13 13 11 10 12 13 12 11 12 12 10 10 12 12 13 13 12 11 10 10 10 10 10 9 8 7 4 2 1 1 1 2 2 3 4 4 4 4
11 14 16 13 12 12 13 11 8 7 8 9 9 10 10 11 10 10 11 12 13 13 12 11 10 10 10 10 9 9 8 7 6 4 2 2 2 2 2 3 4 4 4 4
13 10 11 9 8 10 11 10 7 7 7 9 9 10 11 11 8 9 11 12 13 12 12 10 10 10 10 10 10 9 9 8 8 6 3 2 2 2 2 3 3 4 4 4
13 10 7 8 10 10 9 10 9 9 10 8 11 10 10 11 10 10 11 12 12 12 11 10 10 10 9 9 9 9 9 9 8 7 6 5 3 3 3 3 3 3 5 5
9 8 8 10 11 9 8 9 10 10 8 9 10 9 8 10 11 12 12 12 13 12 11 11 10 10 9 9 9 9 9 10 9 8 7 5 5 4 3 3 4 4 4 6
11 8 8 9 10 8 9 10 10 10 9 13 11 11 8 12 13 12 12 13 14 13 12 11 10 10 10 9 9 9 10 10 10 10 9 8 7 6 6 6 5 4 4 5
10 10 10 8 9 9 9 8 5 6 8 9 9 7 4 9 12 15 16 16 14 13 12 11 10 10 10 10 10 9 10 10 10 10 10 9 8 7 7 6 6 6 5 6
7 9 9 9 9 7 9 10 6 5 7 6 6 4 4 8 12 17 18 17 15 13 11 11 11 10 10 10 9 9 10 10 10 10 9 9 9 6 6 7 6 6 5 6
4 5 5 8 8 9 9 9 8 7 9 6 4 1 6 12 16 18 19 17 15 14 13 12 11 10 10 10 10 9 10 10 9 9 9 9 9 8 7 6 6 6 5 6
5 5 7 8 8 10 9 8 6 6 5 5 4 3 3 10 15 18 18 17 15 14 13 12 11 10 10 10 9 9 10 9 9 9 8 8 8 8 7 7 8 7 7 7
7 6 7 8 8 7 7 8 7 7 4 4 3 1 2 6 10 14 16 16 16 15 13 12 10 10 10 10 9 9 9 9 9 8 8 8 8 8 8 7 8 7 7 6
5 5 6 7 6 6 6 7 7 6 6 5 3 0 1 3 7 13 15 16 15 14 13 12 11 10 10 9 9 9 8 8 7 7 7 7 7 7 8 8 8 8 8 7
5 3 5 5 3 4 5 7 6 5 6 5 5 1 2 3 6 12 16 17 15 14 13 12 11 9 9 9 8 8 8 8 7 7 8 7 8 8 8 8 7 8 8 8
3 4 5 5 4 4 7 8 6 5 5 6 5 2 5 6 9 12 15 16 15 13 12 11 10 9 9 8 8 8 8 7 7 7 8 8 7 7 7 7 7 7 8 8
2 6 7 7 8 7 8 8 7 6 6 7 4 2 5 7 10 14 14 15 14 13 12 11 10 9 9 8 8 8 7 6 6 7 7 7 7 7 7 7 7 7 8 9
2 6 8 9 10 8 7 7 6 6 6 6 3 4 9 10 10 13 15 14 13 13 12 11 10 10 9 8 8 7 7 6 6 7 7 6 6 6 6 6 7 7 8 9
4 6 8 8 8 6 6 5 4 4 5 5 4 4 8 8 9 11 14 14 13 13 12 11 10 9 8 8 7 7 7 6 6 6 6 6 6 6 6 7 7 7 8 8
5 6 5 7 7 5 1 2 3 4 7 8 8 9 9 10 10 9 10 12 13 13 12 11 10 10 8 8 7 7 7 6 6 6 6 6 6 6 6 7 7 7 7 7
6 5 5 4 5 3 4 6 6 3 6 8 8 9 10 11 10 8 8 11 12 13 12 11 10 10 9 8 7 7 7 6 6 6 6 6 6 6 6 7 7 6 6 6
7 6 5 6 5 2 2 6 7 2 4 7 6 7 8 7 3 5 9 12 13 13 12 11 11 10 9 7 7 7 6 6 6 6 7 6 6 6 7 6 6 5 5 6
4 5 6 7 5 1 8 10 7 2 2 5 5 5 6 4 6 12 13 13 13 13 13 11 11 9 8 7 7 7 7 7 6 6 7 7 6 6 6 5 4 4 5 6
2 2 3 3 2 1 11 9 6 5 4 5 6 8 10 13 15 15 15 14 14 13 12 11 10 9 8 8 8 8 7 6 6 6 6 6 5 5 6 4 4 4 4 4
2 3 2 3 2 3 5 7 6 6 6 6 9 11 13 14 15 15 14 14 13 13 11 10 10 10 8 7 8 9 7 7 6 6 6 6 6 5 4 3 2 2 2 2
2 3 1 1 3 4 7 8 8 7 6 7 10 11 12 14 15 15 13 12 12 11 11 10 11 10 9 8 8 8 7 6 6 6 5 5 5 5 4 4 4 5 5 4
5 3 2 2 2 4 7 7 7 6 7 8 9 10 12 15 15 14 13 12 11 10 10 10 10 10 10 9 8 8 8 7 6 5 4 5 6 6 6 7 6 6 6 6
3 3 2 2 4 3 4 5 5 5 6 7 9 11 12 14 14 14 12 11 11 11 10 10 10 11 11 10 9 9 8 7 6 5 4 5 6 6 6 7 6 10 7 9
Wind_Direction
210 226 232 228 227 238 257 246 225 195 179 203 205 181 173 180 180 164 140 125 113 102 95 87 78 68 66 60 58 56 55 45 38 44 36 69 75 66 61 61 55 37 17 358
211 228 240 239 229 248 266 256 227 182 176 207 203 186 175 173 175 156 138 128 120 114 101 88 78 68 62 57 56 53 47 39 32 26 16 41 56 61 70 52 54 34 21 4
225 231 229 243 239 245 257 260 233 190 191 217 222 204 182 176 171 145 134 127 121 115 107 96 82 71 63 57 53 50 43 37 30 17 20 45 62 57 57 53 48 30 25 26
232 230 216 229 240 237 245 259 257 233 210 221 225 223 194 178 168 158 144 131 123 115 110 101 90 76 66 62 59 53 47 41 31 25 31 30 45 42 33 32 37 36 36 31
234 225 216 228 238 232 244 246 247 246 236 246 232 238 205 174 183 174 157 143 130 123 114 103 92 83 71 62 60 55 51 45 37 34 35 36 47 44 35 31 31 31 39 35
254 235 225 230 238 237 243 243 244 247 243 244 245 242 204 184 183 168 161 145 133 125 116 108 101 91 78 67 61 57 53 47 40 39 38 40 43 42 40 32 27 28 38 35
238 233 228 236 236 231 244 245 245 252 250 254 281 259 178 171 168 165 160 145 134 128 122 117 106 92 80 69 61 58 55 50 43 43 43 40 37 44 42 33 29 29 36 38
241 234 226 223 227 231 239 241 236 244 259 258 273 265 132 148 150 147 146 138 135 129 121 112 100 92 83 73 65 60 58 54 48 47 46 41 35 41 42 37 40 40 38 39
274 246 235 234 225 232 238 251 247 256 273 279 257 131 123 132 126 130 135 138 137 128 120 111 102 93 84 76 68 63 63 58 52 50 50 49 43 42 43 43 44 43 37 40
297 276 244 237 230 241 254 257 268 266 278 273 252 219 188 151 144 143 144 144 135 128 120 112 105 97 89 83 76 69 66 63 58 55 49 51 47 45 45 46 46 41 39 39
276 269 256 252 240 244 250 256 272 287 285 291 297 275 175 186 170 156 151 145 138 132 125 119 112 104 98 90 81 74 70 66 62 60 57 51 48 49 52 51 49 45 44 44
299 286 267 259 283 290 271 263 271 285 300 303 307 43 78 158 172 152 144 137 132 128 124 120 112 104 97 91 87 80 74 72 69 67 63 57 54 54 55 54 52 50 46 46
325 301 272 257 271 292 283 276 277 286 293 296 304 154 77 79 119 129 137 133 131 128 124 118 111 104 99 94 90 85 77 71 70 71 68 61 58 58 55 50 51 54 52 48
291 287 275 264 284 286 276 276 285 288 288 296 296 162 148 134 125 127 133 133 132 129 127 123 117 110 105 101 96 91 82 76 74 74 73 67 61 61 57 52 51 54 57 55
278 280 273 261 256 253 266 275 280 288 294 295 326 99 141 139 139 139 134 133 134 135 132 127 123 117 113 108 103 96 90 82 81 81 77 74 71 66 61 55 52 52 57 63
281 283 291 278 257 253 265 271 275 285 303 310 341 60 96 115 124 133 136 139 143 143 138 132 128 124 120 115 109 104 97 90 86 85 84 83 77 72 65 62 59 58 60 62
289 292 294 281 277 280 277 313 325 339 360 356 8 83 107 113 122 139 146 151 153 148 142 136 131 124 122 120 116 115 109 103 94 89 89 87 81 76 69 70 65 61 64 67
268 287 292 291 296 271 282 352 23 59 43 52 77 99 101 103 106 117 137 145 145 143 139 135 129 124 123 118 115 115 112 107 102 97 91 91 89 87 78 71 71 66 66 71
234 251 273 278 274 274 1 356 354 40 66 59 87 99 106 111 107 97 118 135 138 138 135 132 129 127 124 122 123 121 117 110 102 97 92 87 91 92 87 80 75 70 72 77
217 216 246 273 276 269 0 339 334 5 92 49 87 113 125 138 128 123 123 125 126 127 128 129 130 130 130 130 130 126 121 113 104 100 96 93 94 93 89 85 84 82 84 83
233 228 243 261 269 49 354 349 343 6 51 42 68 107 122 109 93 125 126 122 123 125 128 130 131 132 132 135 133 125 119 111 109 105 103 102 100 102 95 86 81 84 89 89
304 290 283 285 279 348 1 15 37 51 53 64 86 98 101 104 115 125 127 128 130 131 134 135 133 132 132 133 132 126 122 120 116 112 110 110 114 112 106 100 94 99 110 117
10 23 5 17 77 82 48 56 60 59 63 80 95 106 116 122 127 129 129 132 135 136 139 139 136 131 129 130 130 129 128 124 120 119 116 113 108 98 106 118 124 133 146 142
27 41 51 97 101 82 69 64 58 57 68 92 104 115 122 126 130 132 133 136 139 140 139 140 138 134 130 130 132 130 125 122 120 120 115 113 114 108 85 62 57 54 37 32
324 335 13 59 87 78 66 63 64 71 86 101 109 118 125 131 134 136 137 139 140 138 138 139 141 138 136 138 136 131 129 132 133 133 131 128 117 107 92 75 54 63 55 51
1 7 355 32 49 55 65 65 72 85 97 106 116 120 126 133 136 137 138 140 140 140 141 141 141 140 141 143 141 138 139 141 145 148 152 144 137 138 131 116 93 60 73 70
Height
1478 1479 1475 1469 1466 1464 1462 1461 1461 1458 1455 1461 1465 1471 1473 1476 1479 1482 1488 1495 1500 1505 1509 1512 1513 1514 1514 1515 1516 1517 1518 1520 1521 1523 1524 1525 1526 1527 1528 1528 1529 1529 1529 1530
1475 1475 1466 1460 1459 1460 1460 1460 1459 1457 1455 1460 1465 1469 1471 1475 1479 1483 1489 1495 1500 1506 1509 1513 1514 1515 1515 1516 1517 1517 1518 1520 1520 1521 1523 1524 1525 1525 1526 1527 1527 1527 1527 1527
1471 1465 1460 1460 1460 1464 1463 1462 1460 1463 1461 1462 1467 1473 1474 1476 1481 1485 1491 1496 1501 1506 1510 1513 1515 1516 1516 1517 1517 1518 1518 1519 1520 1521 1522 1522 1523 1524 1525 1525 1525 1525 1525 1525
1464 1459 1460 1463 1464 1463 1468 1459 1458 1460 1467 1472 1471 1484 1479 1477 1483 1489 1494 1500 1504 1508 1511 1514 1516 1517 1517 1517 1517 1518 1518 1519 1519 1520 1521 1522 1523 1523 1524 1524 1524 1523 1523 1523
1461 1457 1460 1464 1461 1460 1462 1457 1458 1460 1465 1472 1472 1482 1483 1480 1486 1490 1495 1501 1506 1510 1512 1515 1516 1517 1518 1518 1518 1518 1519 1519 1519 1520 1520 1521 1522 1522 1523 1523 1522 1522 1521 1521
1458 1455 1457 1459 1457 1457 1457 1460 1460 1461 1467 1483 1477 1481 1485 1482 1483 1488 1494 1501 1507 1510 1513 1515 1517 1518 1519 1519 1519 1519 1519 1519 1520 1520 1520 1521 1521 1522 1522 1522 1522 1521 1521 1520
1463 1457 1455 1456 1459 1458 1459 1470 1484 1490 1491 1488 1475 1476 1482 1476 1477 1484 1493 1501 1507 1511 1514 1516 1518 1519 1520 1520 1520 1520 1520 1520 1520 1520 1521 1521 1521 1521 1521 1521 1521 1521 1521 1520
1472 1469 1457 1456 1459 1463 1463 1469 1491 1506 1502 1492 1482 1482 1481 1474 1476 1483 1493 1501 1507 1511 1514 1517 1519 1520 1521 1521 1521 1521 1521 1521 1521 1521 1521 1521 1521 1521 1522 1522 1522 1521 1521 1520
1473 1471 1457 1455 1456 1459 1465 1466 1468 1481 1485 1493 1490 1484 1483 1477 1482 1488 1496 1502 1507 1511 1514 1517 1519 1521 1522 1522 1522 1522 1522 1523 1523 1523 1523 1522 1522 1522 1522 1522 1522 1522 1521 1521
1469 1474 1463 1457 1456 1456 1458 1462 1468 1477 1494 1501 1495 1493 1492 1484 1485 1489 1496 1501 1506 1510 1514 1517 1520 1522 1523 1523 1524 1524 1524 1524 1524 1524 1524 1524 1524 1524 1524 1523 1523 1523 1522 1521
1467 1474 1469 1462 1461 1463 1461 1463 1465 1468 1474 1491 1502 1501 1483 1484 1484 1487 1494 1499 1505 1509 1513 1517 1520 1523 1524 1524 1525 1525 1526 1526 1526 1526 1526 1525 1525 1525 1525 1525 1524 1524 1523 1523
1470 1472 1475 1469 1461 1458 1459 1462 1466 1479 1481 1479 1489 1499 1481 1481 1482 1485 1493 1500 1505 1510 1514 1518 1521 1523 1525 1526 1526 1527 1527 1527 1528 1528 1528 1527 1527 1527 1527 1527 1526 1526 1526 1525
1474 1478 1486 1482 1478 1469 1467 1464 1463 1468 1473 1480 1489 1497 1482 1484 1486 1489 1495 1501 1507 1511 1515 1519 1521 1524 1526 1527 1528 1528 1529 1529 1530 1530 1530 1530 1530 1530 1530 1529 1529 1529 1528 1528
1477 1480 1489 1496 1490 1483 1478 1469 1465 1469 1478 1481 1481 1485 1485 1486 1489 1494 1498 1503 1508 1512 1516 1520 1522 1525 1527 1528 1529 1530 1531 1531 1532 1532 1532 1532 1532 1532 1532 1532 1532 1532 1531 1531
1477 1483 1481 1480 1478 1477 1475 1470 1467 1469 1470 1476 1475 1479 1483 1486 1489 1495 1500 1505 1510 1514 1517 1521 1523 1526 1528 1529 1531 1532 1532 1533 1534 1534 1534 1534 1535 1535 1535 1535 1535 1535 1535 1534
1477 1483 1481 1479 1472 1470 1471 1468 1467 1468 1467 1469 1472 1481 1482 1487 1492 1497 1501 1506 1511 1515 1518 1521 1524 1526 1529 1530 1532 1533 1534 1535 1536 1536 1537 1537 1537 1538 1538 1538 1538 1538 1538 1538
1479 1483 1485 1483 1472 1470 1477 1470 1468 1468 1467 1470 1477 1483 1486 1490 1494 1499 1503 1507 1511 1515 1519 1522 1525 1527 1530 1532 1533 1535 1536 1537 1538 1538 1539 1539 1540 1540 1541 1541 1541 1541 1541 1541
1482 1485 1486 1484 1480 1491 1478 1466 1467 1470 1473 1474 1478 1484 1489 1494 1498 1501 1504 1508 1512 1516 1520 1523 1526 1528 1531 1533 1535 1536 1538 1539 1540 1540 1541 1542 1543 1543 1543 1543 1544 1544 1545 1545
1479 1484 1487 1487 1490 1487 1479 1472 1470 1473 1480 1481 1484 1488 1493 1497 1501 1505 1507 1510 1513 1517 1520 1523 1526 1529 1532 1534 1536 1538 1539 1541 1542 1543 1544 1544 1545 1545 1546 1546 1547 1547 1548 1548
1475 1479 1486 1486 1492 1495 1487 1475 1471 1473 1486 1486 1487 1490 1493 1496 1499 1508 1510 1512 1515 1518 1521 1524 1527 1530 1533 1535 1537 1539 1541 1543 1544 1545 1546 1547 1547 1548 1549 1549 1550 1551 1551 1552
1480 1481 1485 1487 1489 1489 1484 1476 1473 1486 1495 1489 1490 1491 1494 1496 1500 1507 1510 1513 1517 1520 1523 1526 1529 1532 1534 1537 1539 1541 1543 1545 1546 1547 1548 1549 1550 1550 1551 1552 1553 1554 1555 1555
1483 1486 1486 1487 1492 1498 1487 1483 1488 1493 1490 1490 1492 1494 1496 1500 1504 1508 1511 1515 1518 1522 1525 1528 1531 1534 1536 1538 1540 1542 1544 1546 1548 1549 1550 1551 1552 1554 1554 1555 1556 1557 1558 1558
1483 1487 1489 1492 1496 1494 1491 1491 1492 1492 1493 1493 1494 1497 1499 1503 1507 1511 1514 1518 1521 1524 1527 1530 1533 1535 1538 1540 1543 1544 1546 1548 1550 1551 1552 1554 1555 1556 1557 1558 1559 1560 1560 1561
1484 1485 1487 1490 1492 1492 1492 1493 1493 1494 1495 1496 1497 1499 1502 1505 1509 1513 1516 1520 1523 1526 1529 1532 1534 1537 1540 1542 1545 1547 1548 1550 1552 1553 1555 1556 1557 1559 1559 1560 1561 1562 1562 1563
1489 1487 1489 1491 1492 1492 1494 1495 1496 1496 1497 1498 1500 1502 1505 1507 1511 1515 1518 1522 1525 1528 1531 1533 1536 1539 1541 1544 1546 1548 1550 1552 1554 1555 1557 1559 1560 1561 1562 1562 1563 1564 1564 1565
1489 1490 1491 1493 1494 1495 1497 1497 1498 1499 1500 1501 1503 1505 1508 1510 1513 1517 1520 1524 1527 1530 1532 1535 1538 1541 1543 1546 1548 1550 1552 1554 1556 1558 1559 1561 1562 1563 1564 1565 1565 1566 1566 1567